SHI4377 LTFM-OITT

Flight info

Callsign SHI4377
Flight time 2h 15m
Altitude 35000
Route ASMAP UT341 BAG UL614 EZS UG81 VAN UL124 BONAM G781 UMH A422 SETNA
Aircraft B733/M-SDE2E3FHIRW/S

Departure

Time 2026-05-05 08:52
Airport İstanbul Airport (LTFM)

Arrival

Time 2026-05-05 11:08
Airport Tabriz International Airport (OITT)
Time Latitude Longitude Altitude Speed Heading
2026-05-05 08:06 41.26892 28.72168 332 ft 0 kts
2026-05-05 08:34 41.26893 28.72168 332 ft 0 kts
2026-05-05 08:34 41.26894 28.72168 332 ft 0 kts 360°
2026-05-05 08:34 41.26895 28.72168 332 ft 0 kts 359°
2026-05-05 08:35 41.26895 28.72167 332 ft 0 kts 340°
2026-05-05 08:35 41.26895 28.72162 332 ft 0 kts 240°
2026-05-05 08:35 41.26888 28.72162 332 ft 1 kts 177°
2026-05-05 08:36 41.26856 28.72166 332 ft 7 kts 174°
2026-05-05 08:36 41.26787 28.72173 332 ft 11 kts 180°
2026-05-05 08:36 41.26708 28.72170 332 ft 12 kts 182°
2026-05-05 08:36 41.26620 28.72170 332 ft 12 kts 179°
2026-05-05 08:37 41.26528 28.72173 332 ft 13 kts 178°
2026-05-05 08:37 41.26496 28.72174 332 ft 13 kts 178°
2026-05-05 08:37 41.26226 28.72176 332 ft 15 kts 185°
2026-05-05 08:38 41.26118 28.72158 332 ft 15 kts 188°
2026-05-05 08:38 41.26014 28.72139 332 ft 15 kts 188°
2026-05-05 08:38 41.25922 28.72121 332 ft 13 kts 188°
2026-05-05 08:38 41.25912 28.72119 332 ft 1 kts 188°
2026-05-05 08:39 41.25885 28.72114 332 ft 6 kts 188°
2026-05-05 08:39 41.25843 28.72106 332 ft 6 kts 188°
2026-05-05 08:39 41.25796 28.72096 332 ft 7 kts 188°
2026-05-05 08:39 41.25745 28.72089 332 ft 7 kts 186°
2026-05-05 08:40 41.25689 28.72085 332 ft 8 kts 176°
2026-05-05 08:40 41.25639 28.72115 332 ft 7 kts 129°
2026-05-05 08:40 41.25635 28.72179 332 ft 6 kts 58°
2026-05-05 08:40 41.25676 28.72199 332 ft 6 kts
2026-05-05 08:41 41.25724 28.72207 332 ft 7 kts
2026-05-05 08:41 41.25777 28.72215 332 ft 7 kts
2026-05-05 08:41 41.25825 28.72223 332 ft 8 kts
2026-05-05 08:41 41.25883 28.72232 332 ft 8 kts
2026-05-05 08:42 41.25945 28.72242 332 ft 9 kts
2026-05-05 08:42 41.26011 28.72253 332 ft 9 kts
2026-05-05 08:42 41.26080 28.72264 332 ft 10 kts
2026-05-05 08:42 41.26150 28.72278 332 ft 10 kts 13°
2026-05-05 08:43 41.26208 28.72326 332 ft 8 kts 78°
2026-05-05 08:43 41.26207 28.72337 332 ft 0 kts 99°
2026-05-05 08:43 41.26207 28.72338 332 ft 0 kts 99°
2026-05-05 08:44 41.26207 28.72340 332 ft 0 kts 101°
2026-05-05 08:48 41.26206 28.72344 332 ft 2 kts 102°
2026-05-05 08:48 41.26197 28.72428 332 ft 11 kts 94°
2026-05-05 08:49 41.26214 28.72525 332 ft 9 kts 27°
2026-05-05 08:49 41.26262 28.72526 332 ft 2 kts 359°
2026-05-05 08:49 41.26264 28.72526 332 ft 0 kts 359°
2026-05-05 08:51 41.26264 28.72525 332 ft 0 kts 359°
2026-05-05 08:51 41.26316 28.72525 332 ft 20 kts 359°
2026-05-05 08:52 41.26680 28.72515 332 ft 85 kts 359°
2026-05-05 08:52 41.27487 28.72503 332 ft 142 kts 359°
2026-05-05 08:52 41.28224 28.72487 344 ft 170 kts 359°
2026-05-05 08:52 41.29765 28.72462 1145 ft 168 kts
2026-05-05 08:53 41.30934 28.72481 1684 ft 169 kts
2026-05-05 08:53 41.32124 28.72487 2133 ft 174 kts
2026-05-05 08:53 41.33417 28.72497 2275 ft 196 kts
2026-05-05 08:53 41.34832 28.72501 2559 ft 208 kts 358°
2026-05-05 08:54 41.36272 28.72022 2952 ft 220 kts 334°
2026-05-05 08:54 41.37461 28.70727 3544 ft 229 kts 310°
2026-05-05 08:54 41.38128 28.68807 4296 ft 235 kts 281°
2026-05-05 08:54 41.38155 28.66573 4810 ft 250 kts 273°
2026-05-05 08:55 41.38122 28.64204 5324 ft 260 kts 273°
2026-05-05 08:55 41.38095 28.61780 6007 ft 264 kts 273°
2026-05-05 08:55 41.38006 28.59348 6709 ft 270 kts 262°
2026-05-05 08:55 41.37197 28.57056 7381 ft 282 kts 232°
2026-05-05 08:56 41.35610 28.55475 8037 ft 290 kts 201°
2026-05-05 08:56 41.33624 28.55062 8694 ft 292 kts 178°
2026-05-05 08:56 41.31757 28.55121 9317 ft 295 kts 178°
2026-05-05 08:56 41.29718 28.55179 9983 ft 298 kts 178°
2026-05-05 08:57 41.27591 28.55241 10299 ft 316 kts 177°
2026-05-05 08:57 41.25337 28.55756 10356 ft 339 kts 156°
2026-05-05 08:57 41.23409 28.57500 10862 ft 340 kts 131°
2026-05-05 08:57 41.21769 28.59773 11594 ft 342 kts 132°
2026-05-05 08:58 41.20647 28.61243 12095 ft 344 kts 133°
2026-05-05 08:58 41.18302 28.64186 13033 ft 348 kts 135°
2026-05-05 08:58 41.16510 28.66372 13739 ft 351 kts 135°
2026-05-05 08:58 41.14715 28.68537 14393 ft 355 kts 136°
2026-05-05 08:59 41.12892 28.70761 15080 ft 357 kts 131°
2026-05-05 08:59 41.11415 28.73403 15695 ft 358 kts 120°
2026-05-05 08:59 41.10069 28.76207 16330 ft 362 kts 120°
2026-05-05 08:59 41.08770 28.79056 16956 ft 363 kts 111°
2026-05-05 09:00 41.08086 28.82250 17539 ft 362 kts 99°
2026-05-05 09:00 41.07513 28.85506 18136 ft 366 kts 101°
2026-05-05 09:00 41.06853 28.88770 18722 ft 371 kts 103°
2026-05-05 09:00 41.06133 28.92089 19231 ft 377 kts 103°
2026-05-05 09:01 41.05381 28.95436 19762 ft 382 kts 104°
2026-05-05 09:01 41.04615 28.98796 20295 ft 386 kts 104°
2026-05-05 09:01 41.03836 29.02185 20781 ft 391 kts 104°
2026-05-05 09:01 41.03072 29.05491 21257 ft 396 kts 104°
2026-05-05 09:02 41.02259 29.08995 21735 ft 401 kts 104°
2026-05-05 09:02 41.01434 29.12546 22213 ft 405 kts 104°
2026-05-05 09:02 41.00601 29.16127 22682 ft 409 kts 105°
2026-05-05 09:02 40.99762 29.19727 23119 ft 414 kts 105°
2026-05-05 09:03 40.98909 29.23380 23613 ft 417 kts 105°
2026-05-05 09:03 40.98046 29.27067 24248 ft 417 kts 105°
2026-05-05 09:03 40.97472 29.29513 24671 ft 417 kts 105°
2026-05-05 09:03 40.96326 29.34399 25471 ft 417 kts 105°
2026-05-05 09:04 40.95470 29.38046 26018 ft 417 kts 105°
2026-05-05 09:04 40.94602 29.41732 26453 ft 421 kts 105°
2026-05-05 09:04 40.93738 29.45396 26885 ft 424 kts 105°
2026-05-05 09:04 40.92847 29.49169 27302 ft 427 kts 105°
2026-05-05 09:05 40.91964 29.52901 27716 ft 430 kts 105°
2026-05-05 09:05 40.91064 29.56701 28150 ft 433 kts 105°
2026-05-05 09:05 40.90162 29.60502 28568 ft 436 kts 105°
2026-05-05 09:05 40.89236 29.64369 28937 ft 439 kts 105°
2026-05-05 09:06 40.88304 29.68239 29300 ft 443 kts 105°
2026-05-05 09:06 40.87376 29.72109 29706 ft 445 kts 105°
2026-05-05 09:06 40.86453 29.75964 30150 ft 446 kts 105°
2026-05-05 09:06 40.85984 29.77918 30393 ft 445 kts 105°
2026-05-05 09:07 40.85042 29.81846 30917 ft 444 kts 105°
2026-05-05 09:07 40.84123 29.85665 31495 ft 440 kts 105°
2026-05-05 09:07 40.83197 29.89507 31967 ft 441 kts 104°
2026-05-05 09:07 40.82261 29.93395 32245 ft 445 kts 104°
2026-05-05 09:08 40.81315 29.97312 32605 ft 446 kts 104°
2026-05-05 09:08 40.80375 30.01193 33073 ft 444 kts 104°
2026-05-05 09:08 40.79438 30.05056 33585 ft 441 kts 104°
2026-05-05 09:08 40.78511 30.08870 34104 ft 438 kts 104°
2026-05-05 09:09 40.77577 30.12714 34403 ft 440 kts 104°
2026-05-05 09:09 40.76643 30.16551 34642 ft 440 kts 103°
2026-05-05 09:09 40.75698 30.20427 34838 ft 441 kts 103°
2026-05-05 09:09 40.74760 30.24266 34997 ft 440 kts 103°
2026-05-05 09:10 40.73824 30.28088 35071 ft 439 kts 103°
2026-05-05 09:10 40.71952 30.35717 35068 ft 438 kts 103°
2026-05-05 09:11 40.70074 30.43344 35044 ft 437 kts 103°
2026-05-05 09:11 40.68197 30.50948 35052 ft 438 kts 103°
2026-05-05 09:12 40.66355 30.58384 35043 ft 438 kts 103°
2026-05-05 09:12 40.64451 30.66049 35029 ft 438 kts 103°
2026-05-05 09:13 40.62191 30.73470 35013 ft 445 kts 118°
2026-05-05 09:13 40.58712 30.80326 35008 ft 449 kts 119°
2026-05-05 09:14 40.55317 30.87173 34990 ft 447 kts 118°
2026-05-05 09:14 40.51964 30.94029 34993 ft 448 kts 118°
2026-05-05 09:15 40.48577 31.00943 34997 ft 448 kts 117°
2026-05-05 09:15 40.45220 31.07779 35000 ft 447 kts 117°
2026-05-05 09:16 40.41838 31.14654 35018 ft 448 kts 117°
2026-05-05 09:16 40.38474 31.21521 35000 ft 445 kts 114°
2026-05-05 09:16 40.37391 31.25229 35009 ft 431 kts 96°
2026-05-05 09:17 40.36844 31.28956 35002 ft 433 kts 94°
2026-05-05 09:17 40.35726 31.36684 34986 ft 432 kts 95°
2026-05-05 09:18 40.34487 31.44424 34972 ft 432 kts 96°
2026-05-05 09:18 40.33231 31.52127 34973 ft 434 kts 96°
2026-05-05 09:19 40.31969 31.59823 34961 ft 432 kts 96°
2026-05-05 09:19 40.30705 31.67506 34937 ft 433 kts 96°
2026-05-05 09:20 40.29435 31.75194 35045 ft 433 kts 96°
2026-05-05 09:20 40.28152 31.82927 34955 ft 433 kts 96°
2026-05-05 09:21 40.26865 31.90640 34931 ft 433 kts 96°
2026-05-05 09:21 40.25279 31.98211 34959 ft 435 kts 100°
2026-05-05 09:22 40.23629 32.05708 34956 ft 434 kts 99°
2026-05-05 09:22 40.21986 32.13274 35001 ft 436 kts 99°
2026-05-05 09:23 40.20311 32.20972 35087 ft 438 kts 100°
2026-05-05 09:23 40.18636 32.28641 34921 ft 435 kts 100°
2026-05-05 09:23 40.17815 32.32388 35039 ft 435 kts 100°
2026-05-05 09:24 40.16972 32.36236 34939 ft 435 kts 100°
2026-05-05 09:24 40.15316 32.43771 34956 ft 435 kts 100°
2026-05-05 09:25 40.13635 32.51390 34966 ft 435 kts 100°
2026-05-05 09:25 40.11956 32.58973 34962 ft 434 kts 101°
2026-05-05 09:26 40.10269 32.66569 34965 ft 436 kts 101°
2026-05-05 09:26 40.08581 32.74155 34965 ft 434 kts 101°
2026-05-05 09:27 40.06857 32.81711 34982 ft 436 kts 105°
2026-05-05 09:27 40.04654 32.89140 34965 ft 438 kts 107°
2026-05-05 09:28 40.02470 32.96482 34973 ft 436 kts 107°
2026-05-05 09:28 40.00283 33.03915 34971 ft 437 kts 107°
2026-05-05 09:29 39.98094 33.11336 34981 ft 437 kts 107°
2026-05-05 09:29 39.95904 33.18741 35078 ft 439 kts 106°
2026-05-05 09:30 39.93709 33.26141 35129 ft 435 kts 106°
2026-05-05 09:30 39.91541 33.33431 34964 ft 430 kts 105°
2026-05-05 09:31 39.89370 33.40707 34925 ft 432 kts 106°
2026-05-05 09:31 39.87177 33.47968 34966 ft 434 kts 106°
2026-05-05 09:32 39.86066 33.51662 34999 ft 435 kts 105°
2026-05-05 09:32 39.83661 33.59669 34879 ft 432 kts 106°
2026-05-05 09:33 39.81935 33.67141 34817 ft 430 kts 101°
2026-05-05 09:33 39.80450 33.74691 34893 ft 434 kts 102°
2026-05-05 09:34 39.78912 33.82313 34951 ft 437 kts 102°
2026-05-05 09:34 39.77308 33.89894 34938 ft 435 kts 106°
2026-05-05 09:35 39.75199 33.97300 34941 ft 436 kts 108°
2026-05-05 09:35 39.72047 34.08351 34952 ft 437 kts 108°
2026-05-05 09:36 39.69941 34.15768 34948 ft 437 kts 108°
2026-05-05 09:36 39.67839 34.23151 34964 ft 437 kts 108°
2026-05-05 09:37 39.67128 34.25647 34960 ft 437 kts 108°
2026-05-05 09:37 39.64594 34.34511 34959 ft 439 kts 108°
2026-05-05 09:38 39.62460 34.41942 34943 ft 439 kts 109°
2026-05-05 09:38 39.60305 34.49361 34958 ft 440 kts 109°
2026-05-05 09:39 39.58164 34.56772 34974 ft 440 kts 109°
2026-05-05 09:39 39.56014 34.64207 34950 ft 439 kts 109°
2026-05-05 09:40 39.53880 34.71584 34952 ft 440 kts 110°
2026-05-05 09:40 39.51708 34.79063 34975 ft 441 kts 110°
2026-05-05 09:41 39.49548 34.86468 34971 ft 439 kts 110°
2026-05-05 09:41 39.47381 34.93879 34965 ft 440 kts 110°
2026-05-05 09:42 39.45208 35.01289 34969 ft 440 kts 110°
2026-05-05 09:42 39.43028 35.08699 34978 ft 440 kts 110°
2026-05-05 09:43 39.40843 35.16111 34970 ft 439 kts 110°
2026-05-05 09:43 39.38667 35.23493 34998 ft 441 kts 110°
2026-05-05 09:44 39.36508 35.30932 34969 ft 441 kts 109°
2026-05-05 09:44 39.34358 35.38354 34936 ft 440 kts 109°
2026-05-05 09:45 39.32198 35.45791 34934 ft 441 kts 109°
2026-05-05 09:45 39.30051 35.53164 34935 ft 441 kts 110°
2026-05-05 09:46 39.27885 35.60578 34938 ft 441 kts 111°
2026-05-05 09:46 39.25708 35.68015 34905 ft 440 kts 112°
2026-05-05 09:47 39.23590 35.75249 34905 ft 439 kts 112°
2026-05-05 09:47 39.21425 35.82602 34904 ft 438 kts 112°
2026-05-05 09:48 39.19251 35.89962 34929 ft 438 kts 112°
2026-05-05 09:48 39.17076 35.97309 34952 ft 437 kts 112°
2026-05-05 09:49 39.15075 36.04704 34950 ft 439 kts 102°
2026-05-05 09:49 39.14127 36.12515 34905 ft 449 kts 99°
2026-05-05 09:50 39.13163 36.20503 34885 ft 448 kts 100°
2026-05-05 09:50 39.12175 36.28324 34936 ft 442 kts 100°
2026-05-05 09:51 39.11176 36.36156 34928 ft 441 kts 101°
2026-05-05 09:51 39.10174 36.43967 35053 ft 442 kts 101°
2026-05-05 09:52 39.09168 36.51774 35193 ft 442 kts 101°
2026-05-05 09:52 39.08155 36.59583 35338 ft 442 kts 101°
2026-05-05 09:53 39.07139 36.67389 35283 ft 443 kts 102°
2026-05-05 09:53 39.06123 36.75170 35144 ft 441 kts 102°
2026-05-05 09:54 39.05095 36.82971 35015 ft 442 kts 102°
2026-05-05 09:54 39.04063 36.90768 34894 ft 442 kts 102°
2026-05-05 09:55 39.03028 36.98542 34900 ft 443 kts 102°
2026-05-05 09:55 39.01979 37.06378 34907 ft 445 kts 102°
2026-05-05 09:56 39.00928 37.14185 34906 ft 443 kts 102°
2026-05-05 09:56 38.99868 37.22023 34908 ft 442 kts 102°
2026-05-05 09:57 38.98815 37.29770 34905 ft 441 kts 101°
2026-05-05 09:57 38.97810 37.37124 34927 ft 439 kts 101°
2026-05-05 09:58 38.96755 37.44809 34930 ft 436 kts 101°
2026-05-05 09:58 38.95698 37.52461 34935 ft 436 kts 101°
2026-05-05 09:59 38.94633 37.60139 34940 ft 436 kts 101°
2026-05-05 09:59 38.93564 37.67808 34909 ft 438 kts 102°
2026-05-05 10:00 38.92489 37.75512 34938 ft 436 kts 102°
2026-05-05 10:00 38.91407 37.83193 34950 ft 440 kts 103°
2026-05-05 10:01 38.90306 37.90972 34942 ft 445 kts 103°
2026-05-05 10:01 38.89180 37.98778 34926 ft 445 kts 104°
2026-05-05 10:02 38.88052 38.06583 34917 ft 444 kts 104°
2026-05-05 10:02 38.86930 38.14389 34900 ft 444 kts 103°
2026-05-05 10:03 38.85807 38.22163 34930 ft 444 kts 103°
2026-05-05 10:03 38.84679 38.29938 34965 ft 445 kts 103°
2026-05-05 10:04 38.83541 38.37747 34977 ft 445 kts 103°
2026-05-05 10:04 38.82397 38.45553 34988 ft 445 kts 103°
2026-05-05 10:05 38.81245 38.53382 34988 ft 445 kts 104°
2026-05-05 10:05 38.80098 38.61131 34943 ft 445 kts 104°
2026-05-05 10:06 38.78938 38.68947 34902 ft 446 kts 104°
2026-05-05 10:06 38.77782 38.76717 34943 ft 446 kts 104°
2026-05-05 10:07 38.76606 38.84549 34919 ft 445 kts 104°
2026-05-05 10:07 38.75458 38.92007 34937 ft 445 kts 106°
2026-05-05 10:08 38.74200 38.99822 34929 ft 446 kts 105°
2026-05-05 10:08 38.73037 39.07590 34929 ft 447 kts 104°
2026-05-05 10:09 38.71873 39.15430 34929 ft 446 kts 104°
2026-05-05 10:09 38.70762 39.23197 34902 ft 447 kts 99°
2026-05-05 10:10 38.70381 39.31165 34922 ft 450 kts 95°
2026-05-05 10:10 38.70056 39.39144 34961 ft 450 kts 96°
2026-05-05 10:11 38.69685 39.47179 34954 ft 449 kts 96°
2026-05-05 10:11 38.69307 39.55186 34966 ft 451 kts 96°
2026-05-05 10:12 38.68947 39.63122 34953 ft 449 kts 96°
2026-05-05 10:12 38.68589 39.71114 34919 ft 448 kts 97°
2026-05-05 10:13 38.68225 39.79100 34939 ft 451 kts 97°
2026-05-05 10:13 38.67857 39.87075 34946 ft 449 kts 97°
2026-05-05 10:14 38.67481 39.95073 34941 ft 450 kts 97°
2026-05-05 10:14 38.67098 40.03098 34941 ft 451 kts 97°
2026-05-05 10:15 38.66713 40.11084 34937 ft 450 kts 97°
2026-05-05 10:15 38.66388 40.17714 34931 ft 450 kts 97°
2026-05-05 10:16 38.65909 40.27070 34932 ft 449 kts 97°
2026-05-05 10:16 38.65509 40.35017 34935 ft 450 kts 97°
2026-05-05 10:17 38.65114 40.42996 34948 ft 449 kts 97°
2026-05-05 10:17 38.64718 40.50883 34952 ft 451 kts 97°
2026-05-05 10:18 38.64311 40.58886 34960 ft 451 kts 97°
2026-05-05 10:18 38.63897 40.66932 34931 ft 453 kts 98°
2026-05-05 10:19 38.63481 40.74940 34957 ft 452 kts 98°
2026-05-05 10:19 38.63053 40.82937 34949 ft 451 kts 99°
2026-05-05 10:20 38.62554 40.90951 34945 ft 451 kts 99°
2026-05-05 10:20 38.62067 40.98959 34950 ft 452 kts 98°
2026-05-05 10:21 38.61582 41.06952 34950 ft 453 kts 99°
2026-05-05 10:21 38.61092 41.14957 34954 ft 453 kts 99°
2026-05-05 10:22 38.60590 41.23040 34953 ft 454 kts 99°
2026-05-05 10:22 38.60120 41.30541 34952 ft 454 kts 99°
2026-05-05 10:23 38.59607 41.38631 34934 ft 452 kts 98°
2026-05-05 10:23 38.59108 41.46595 34931 ft 450 kts 98°
2026-05-05 10:24 38.58628 41.54557 34939 ft 453 kts 98°
2026-05-05 10:24 38.58149 41.62566 34948 ft 453 kts 98°
2026-05-05 10:25 38.57663 41.70619 34936 ft 451 kts 99°
2026-05-05 10:25 38.57177 41.78576 34949 ft 452 kts 99°
2026-05-05 10:26 38.56677 41.86636 34947 ft 454 kts 99°
2026-05-05 10:26 38.56177 41.94637 34938 ft 454 kts 100°
2026-05-05 10:27 38.55665 42.02697 34940 ft 457 kts 101°
2026-05-05 10:27 38.55147 42.10783 34954 ft 459 kts 101°
2026-05-05 10:28 38.54620 42.18939 34954 ft 457 kts 101°
2026-05-05 10:28 38.54093 42.26990 34946 ft 456 kts 101°
2026-05-05 10:29 38.53560 42.35042 34922 ft 454 kts 100°
2026-05-05 10:29 38.53021 42.43106 34944 ft 455 kts 101°
2026-05-05 10:30 38.52475 42.51167 34812 ft 459 kts 101°
2026-05-05 10:30 38.51921 42.59288 34980 ft 461 kts 101°
2026-05-05 10:31 38.51360 42.67451 35005 ft 463 kts 102°
2026-05-05 10:31 38.50799 42.75577 35015 ft 460 kts 102°
2026-05-05 10:32 38.50186 42.83722 35030 ft 462 kts 103°
2026-05-05 10:32 38.49579 42.91907 35035 ft 461 kts 102°
2026-05-05 10:33 38.49000 43.00040 35041 ft 460 kts 102°
2026-05-05 10:33 38.48412 43.08213 35042 ft 462 kts 103°
2026-05-05 10:34 38.47827 43.16323 35028 ft 459 kts 103°
2026-05-05 10:34 38.47229 43.24457 35018 ft 463 kts 103°
2026-05-05 10:35 38.46514 43.32602 35000 ft 454 kts 114°
2026-05-05 10:35 38.45290 43.36231 35031 ft 436 kts 129°
2026-05-05 10:35 38.43721 43.39538 35035 ft 433 kts 130°
2026-05-05 10:36 38.40673 43.46162 35042 ft 435 kts 128°
2026-05-05 10:36 38.37700 43.52930 35048 ft 438 kts 128°
2026-05-05 10:37 38.35743 43.57411 35043 ft 435 kts 128°
2026-05-05 10:37 38.31789 43.66433 35025 ft 437 kts 129°
2026-05-05 10:38 38.28834 43.73187 35051 ft 436 kts 129°
2026-05-05 10:38 38.25887 43.79944 35055 ft 438 kts 128°
2026-05-05 10:39 38.23025 43.86789 35042 ft 438 kts 127°
2026-05-05 10:39 38.20176 43.93627 35050 ft 439 kts 128°
2026-05-05 10:40 38.17304 44.00502 35055 ft 438 kts 128°
2026-05-05 10:40 38.14435 44.07355 35061 ft 438 kts 128°
2026-05-05 10:41 38.12516 44.11927 35054 ft 438 kts 127°
2026-05-05 10:41 38.08683 44.21049 35004 ft 437 kts 127°
2026-05-05 10:42 38.04408 44.31280 35032 ft 439 kts 124°
2026-05-05 10:43 38.01837 44.38238 35057 ft 443 kts 123°
2026-05-05 10:43 37.99242 44.45320 35097 ft 443 kts 124°
2026-05-05 10:44 37.96630 44.52404 35102 ft 443 kts 124°
2026-05-05 10:44 37.94024 44.59449 35025 ft 443 kts 124°
2026-05-05 10:45 37.91401 44.66531 34974 ft 439 kts 125°
2026-05-05 10:45 37.88811 44.73508 34994 ft 439 kts 126°
2026-05-05 10:45 37.87277 44.76762 35019 ft 428 kts 136°
2026-05-05 10:46 37.85489 44.79774 35040 ft 427 kts 138°
2026-05-05 10:46 37.81878 44.85834 35038 ft 431 kts 136°
2026-05-05 10:47 37.78341 44.91919 35025 ft 428 kts 136°
2026-05-05 10:47 37.74794 44.98017 35017 ft 430 kts 136°
2026-05-05 10:48 37.71244 45.04120 34995 ft 431 kts 136°
2026-05-05 10:48 37.69671 45.07413 34988 ft 449 kts 120°
2026-05-05 10:48 37.69010 45.11335 34990 ft 472 kts 98°
2026-05-05 10:48 37.69446 45.15559 34982 ft 494 kts 76°
2026-05-05 10:49 37.70918 45.19531 34736 ft 510 kts 60°
2026-05-05 10:49 37.72786 45.23338 34256 ft 509 kts 63°
2026-05-05 10:49 37.74369 45.27300 33683 ft 502 kts 71°
2026-05-05 10:49 37.75691 45.31369 33044 ft 496 kts 73°
2026-05-05 10:50 37.76905 45.35422 32416 ft 493 kts 75°
2026-05-05 10:50 37.78096 45.39451 31781 ft 494 kts 75°
2026-05-05 10:50 37.79314 45.43543 31158 ft 495 kts 74°
2026-05-05 10:50 37.80535 45.47624 30534 ft 496 kts 74°
2026-05-05 10:51 37.81757 45.51720 29736 ft 499 kts 74°
2026-05-05 10:51 37.82973 45.55825 28848 ft 499 kts 73°
2026-05-05 10:51 37.84177 45.59875 27953 ft 498 kts 74°
2026-05-05 10:51 37.85392 45.63958 27058 ft 497 kts 74°
2026-05-05 10:52 37.86602 45.68033 26113 ft 495 kts 75°
2026-05-05 10:52 37.87808 45.72102 25204 ft 492 kts 75°
2026-05-05 10:52 37.89003 45.76136 24271 ft 485 kts 75°
2026-05-05 10:52 37.90163 45.80056 23353 ft 478 kts 75°
2026-05-05 10:53 37.91318 45.83968 22617 ft 467 kts 75°
2026-05-05 10:53 37.92442 45.87772 22020 ft 454 kts 75°
2026-05-05 10:53 37.93543 45.91501 21479 ft 441 kts 75°
2026-05-05 10:53 37.94690 45.95053 20961 ft 433 kts 72°
2026-05-05 10:54 37.95887 45.98556 20210 ft 433 kts 71°
2026-05-05 10:54 37.97070 46.02016 19457 ft 432 kts 71°
2026-05-05 10:54 37.98260 46.05508 18688 ft 431 kts 71°
2026-05-05 10:54 37.99432 46.08956 17914 ft 429 kts 71°
2026-05-05 10:55 38.00613 46.12436 17162 ft 423 kts 71°
2026-05-05 10:55 38.01757 46.15810 16421 ft 417 kts 71°
2026-05-05 10:55 38.02895 46.19170 15676 ft 411 kts 71°
2026-05-05 10:55 38.04018 46.22496 14935 ft 406 kts 70°
2026-05-05 10:56 38.05120 46.25758 14213 ft 401 kts 70°
2026-05-05 10:56 38.06207 46.28980 13674 ft 390 kts 70°
2026-05-05 10:56 38.07247 46.32066 13400 ft 377 kts 70°
2026-05-05 10:56 38.08261 46.35077 13127 ft 360 kts 70°
2026-05-05 10:57 38.09217 46.37917 12991 ft 343 kts 70°
2026-05-05 10:57 38.10138 46.40661 12841 ft 327 kts 70°
2026-05-05 10:57 38.11024 46.43271 12699 ft 314 kts 70°
2026-05-05 10:57 38.11870 46.45769 12570 ft 301 kts 70°
2026-05-05 10:58 38.12671 46.48142 12378 ft 290 kts 71°
2026-05-05 10:58 38.13450 46.50458 12175 ft 278 kts 70°
2026-05-05 10:58 38.14195 46.52684 11995 ft 266 kts 71°
2026-05-05 10:58 38.14701 46.54857 11931 ft 248 kts 89°
2026-05-05 10:59 38.14640 46.57053 11657 ft 248 kts 110°
2026-05-05 10:59 38.14050 46.59032 11331 ft 235 kts 128°
2026-05-05 10:59 38.13067 46.60619 10990 ft 223 kts 144°
2026-05-05 10:59 38.11837 46.61734 10643 ft 214 kts 160°
2026-05-05 11:00 38.10455 46.62365 10298 ft 207 kts 173°
2026-05-05 11:00 38.09023 46.62509 9906 ft 204 kts 187°
2026-05-05 11:00 38.07655 46.62189 9526 ft 201 kts 200°
2026-05-05 11:00 38.06385 46.61431 9141 ft 201 kts 213°
2026-05-05 11:01 38.05323 46.60305 8857 ft 197 kts 226°
2026-05-05 11:01 38.04532 46.58906 8625 ft 192 kts 239°
2026-05-05 11:01 38.04068 46.57336 8432 ft 189 kts 257°
2026-05-05 11:01 38.03673 46.55782 8332 ft 186 kts 237°
2026-05-05 11:02 38.03050 46.54326 8322 ft 189 kts 239°
2026-05-05 11:02 38.02417 46.52836 8340 ft 189 kts 238°
2026-05-05 11:02 38.01794 46.51360 8304 ft 192 kts 240°
2026-05-05 11:02 38.01403 46.49746 8213 ft 194 kts 261°
2026-05-05 11:03 38.01352 46.48061 8125 ft 196 kts 263°
2026-05-05 11:03 38.01316 46.46351 8117 ft 195 kts 263°
2026-05-05 11:03 38.01278 46.44636 8139 ft 195 kts 264°
2026-05-05 11:03 38.01322 46.42888 8097 ft 199 kts 281°
2026-05-05 11:04 38.01858 46.41277 7955 ft 197 kts 297°
2026-05-05 11:04 38.02638 46.39928 7700 ft 181 kts 304°
2026-05-05 11:04 38.03440 46.38757 7333 ft 172 kts 307°
2026-05-05 11:04 38.04224 46.37650 7025 ft 160 kts 307°
2026-05-05 11:05 38.04958 46.36608 6835 ft 160 kts 306°
2026-05-05 11:05 38.05679 46.35530 6640 ft 159 kts 305°
2026-05-05 11:05 38.06383 46.34445 6416 ft 159 kts 304°
2026-05-05 11:05 38.07087 46.33348 6183 ft 158 kts 305°
2026-05-05 11:06 38.07774 46.32267 5964 ft 158 kts 305°
2026-05-05 11:06 38.08466 46.31182 5746 ft 158 kts 306°
2026-05-05 11:06 38.09159 46.30090 5528 ft 158 kts 306°
2026-05-05 11:06 38.09864 46.29009 5304 ft 159 kts 306°
2026-05-05 11:07 38.10560 46.27928 5081 ft 156 kts 307°
2026-05-05 11:07 38.11253 46.26875 4855 ft 154 kts 308°
2026-05-05 11:07 38.11919 46.25838 4648 ft 150 kts 307°
2026-05-05 11:07 38.12567 46.24807 4491 ft 145 kts 306°
2026-05-05 11:08 38.13131 46.23927 4484 ft 98 kts 306°
2026-05-05 11:08 38.13441 46.23442 4484 ft 59 kts 309°
2026-05-05 11:08 38.13661 46.23088 4483 ft 21 kts 302°
2026-05-05 11:08 38.13659 46.22938 4483 ft 18 kts 220°
2026-05-05 11:09 38.13553 46.22935 4483 ft 16 kts 140°
2026-05-05 11:09 38.13477 46.23044 4483 ft 17 kts 129°
2026-05-05 11:09 38.13401 46.23165 4483 ft 17 kts 129°
2026-05-05 11:09 38.13322 46.23283 4484 ft 17 kts 129°
2026-05-05 11:10 38.13244 46.23400 4484 ft 17 kts 131°
2026-05-05 11:10 38.13168 46.23523 4484 ft 18 kts 126°
2026-05-05 11:10 38.13091 46.23654 4484 ft 18 kts 128°
2026-05-05 11:10 38.13008 46.23784 4484 ft 18 kts 128°
2026-05-05 11:11 38.12923 46.23916 4484 ft 20 kts 128°
2026-05-05 11:11 38.12830 46.24066 4485 ft 22 kts 128°
2026-05-05 11:11 38.12724 46.24228 4485 ft 26 kts 130°
2026-05-05 11:11 38.12614 46.24405 4485 ft 13 kts 128°
2026-05-05 11:12 38.12552 46.24462 4485 ft 9 kts 175°
2026-05-05 11:12 38.12522 46.24456 4485 ft 0 kts 202°
2026-05-05 11:12 38.12521 46.24456 4485 ft 0 kts 194°
2026-05-05 11:12 38.12496 46.24471 4485 ft 7 kts 156°
2026-05-05 11:13 38.12449 46.24511 4485 ft 8 kts 136°
2026-05-05 11:13 38.12425 46.24535 4485 ft 2 kts 174°
2026-05-05 11:13 38.12410 46.24527 4485 ft 2 kts 216°
2026-05-05 11:13 38.12405 46.24515 4485 ft 1 kts 256°
2026-05-05 11:14 38.12403 46.24506 4485 ft 0 kts 263°
2026-05-05 11:14 38.12403 46.24499 4485 ft 0 kts 274°
2026-05-05 11:14 38.12405 46.24494 4485 ft 0 kts 287°
2026-05-05 11:14 38.12407 46.24485 4485 ft 0 kts 295°
2026-05-05 11:15 38.12411 46.24477 4485 ft 1 kts 297°
2026-05-05 11:15 38.12411 46.24476 4485 ft 0 kts 297°